This demonstration page uses our WeatherBlox Daily Observations layout. Learn more.

Left ArrowRight Arrow

39.51506, -84.39828

Hourly Observations for May 13, 2015

Temp ( °F °C ) Dew Point ( °F °C ) Humidity (%) Winds ( mph kmh ) Pressure ( in mb ) Visibility ( mi km ) Precip ( " mm )
12:15 am 00:15 Mostly Cloudy 51 10.8 45 7.3 79 79 Calm 30.27 1025 10 16 0.00 0.00
12:35 am 00:35 Partly Cloudy 53 11.5 46 7.7 78 78 Calm 30.27 1025 10 16 0.00 0.00
12:55 am 00:55 Mostly Cloudy 50 10.2 45 7.3 82 82 Calm 30.27 1025 10 16 0.00 0.00
1:15 am 01:15 Mostly Cloudy 51 10.3 45 7.1 81 81 Calm 30.27 1025 10 16 0.00 0.00
1:35 am 01:35 Clear 49 9.6 44 6.8 83 83 Calm 30.27 1025 10 16 0.00 0.00
1:55 am 01:55 Clear 49 9.6 45 7 84 84 Calm 30.27 1025 10 16 0.00 0.00
2:15 am 02:15 Clear 49 9.6 45 7.2 85 85 Calm 30.27 1025 10 16 0.00 0.00
2:35 am 02:35 Clear 47 8.6 44 6.4 86 86 Calm 30.27 1025 10 16 0.00 0.00
2:55 am 02:55 Clear 47 8.2 43 6.1 87 87 Calm 30.27 1025 10 16 0.00 0.00
3:15 am 03:15 Clear 49 9.6 46 7.7 88 88 Calm 30.27 1025 10 16 0.00 0.00
3:35 am 03:35 Clear 47 8.2 43 6.3 88 88 Calm 30.30 1026 10 16 0.00 0.00
3:55 am 03:55 Clear 47 8.2 44 6.5 89 89 Calm 30.30 1026 10 16 0.00 0.00
4:15 am 04:15 Clear 46 7.7 43 5.9 89 89 Calm 30.30 1026 10 16 0.00 0.00
4:35 am 04:35 Clear 44 6.8 41 5 88 88 Calm 30.30 1026 10 16 0.00 0.00
4:55 am 04:55 Clear 44 6.8 41 5.1 89 89 Calm 30.30 1026 10 16 0.00 0.00
5:15 am 05:15 Clear 45 7 42 5.3 89 89 Calm 30.30 1026 10 16 0.00 0.00
5:35 am 05:35 Clear 44 6.8 41 5.1 89 89 Calm 30.33 1027 10 16 0.00 0.00
5:55 am 05:55 Clear 43 6.1 40 4.3 88 88 Calm 30.36 1028 10 16 0.00 0.00
6:15 am 06:15 Clear 43 6.1 39 4.1 87 87 Calm 30.36 1028 10 16 0.00 0.00
6:35 am 06:35 Sunny 44 6.8 40 4.7 87 87 Calm 30.33 1027 10 16 0.00 0.00
6:55 am 06:55 Sunny 46 7.9 42 5.4 84 84 NNW 5 7 30.36 1028 10 16 0.00 0.00
7:15 am 07:15 Sunny 49 9.6 44 6.6 82 82 N 6 9 30.36 1028 10 16 0.00 0.00
7:35 am 07:35 Sunny 49 9.6 44 6.5 81 81 N 6 9 30.36 1028 10 16 0.00 0.00
7:55 am 07:55 Sunny 49 9.6 43 5.9 78 78 N 7 11 30.39 1029 10 16 0.00 0.00
8:15 am 08:15 Sunny 52 11 43 6.1 72 72 N 7 11 30.39 1029 10 16 0.00 0.00
8:35 am 08:35 Sunny 55 12.5 44 6.4 67 67 N 7 11 30.39 1029 10 16 0.00 0.00
8:55 am 08:55 Sunny 55 12.5 39 4 56 56 N 13 20 30.39 1029 10 16 0.00 0.00
9:15 am 09:15 Sunny 55 12.5 37 2.7 52 52 NNE 9 15 30.39 1029 10 16 0.00 0.00
9:35 am 09:35 Sunny 57 13.8 39 3.7 51 51 N 9 15 30.39 1029 10 16 0.00 0.00
9:55 am 09:55 Sunny 57 13.8 36 2.4 46 46 N 8 13 30.39 1029 10 16 0.00 0.00
10:15 am 10:15 Sunny 57 13.9 35 1.6 44 44 NE 10 17 30.42 1030 10 16 0.00 0.00
10:35 am 10:35 Sunny 59 14.8 36 2.1 43 43 N 8 13 30.42 1030 10 16 0.00 0.00
10:55 am 10:55 Sunny 60 15.3 36 2.3 42 42 NE 9 15 30.42 1030 10 16 0.00 0.00
11:15 am 11:15 Sunny 60 15.3 36 2.3 42 42 NNE 7 11 30.42 1030 10 16 0.00 0.00
11:35 am 11:35 Sunny 60 15.3 36 2.1 41 41 N 8 13 30.42 1030 10 16 0.00 0.00
11:55 am 11:55 Sunny 61 16 35 1.8 39 39 N 6 9 30.42 1030 10 16 0.00 0.00
12:15 pm 12:15 Sunny 61 16 35 1.9 39 39 NNW 8 13 30.42 1030 10 16 0.00 0.00
12:35 pm 12:35 Sunny 61 15.9 35 1.5 38 38 NNE 5 7 30.42 1030 10 16 0.00 0.00
12:55 pm 12:55 Sunny 62 16.6 36 2.3 38 38 NNE 3 6 30.42 1030 10 16 0.00 0.00
1:15 pm 13:15 Sunny 62 16.9 36 2.3 38 38 NE 6 9 30.39 1029 10 16 0.00 0.00
1:35 pm 13:35 Sunny 63 17 36 2.3 37 37 N 12 19 30.39 1029 10 16 0.00 0.00
1:55 pm 13:55 Sunny 63 17.3 35 1.9 36 36 NE 9 15 30.39 1029 10 16 0.00 0.00
2:15 pm 14:15 Sunny 64 17.7 36 2 35 35 NNW 6 9 30.39 1029 10 16 0.00 0.00
2:35 pm 14:35 Sunny 66 19 38 3.5 36 36 N 9 15 30.33 1027 10 16 0.00 0.00
2:55 pm 14:55 Sunny 66 19 38 3.5 36 36 NNE 8 13 30.33 1027 10 16 0.00 0.00
3:15 pm 15:15 Sunny 68 19.9 39 4 35 35 NNE 9 15 30.33 1027 10 16 0.00 0.00
3:35 pm 15:35 Sunny 67 19.5 37 2.7 33 33 NNW 6 9 30.33 1027 10 16 0.00 0.00
3:55 pm 15:55 Sunny 68 19.8 38 3.2 33 33 NNE 8 13 30.33 1027 10 16 0.00 0.00
4:15 pm 16:15 Sunny 69 20.8 40 4.5 34 34 NNW 5 7 30.33 1027 10 16 0.00 0.00
4:35 pm 16:35 Sunny 69 20.8 40 4.2 34 34 N 12 19 30.33 1027 10 16 0.00 0.00
4:55 pm 16:55 Sunny 69 20.8 39 4 33 33 N 8 13 30.33 1027 10 16 0.00 0.00
5:15 pm 17:15 Sunny 69 20.8 38 3.6 32 32 Calm 30.33 1027 10 16 0.00 0.00
5:35 pm 17:35 Sunny 69 20.8 39 3.8 33 33 N 9 15 30.33 1027 10 16 0.00 0.00
5:55 pm 17:55 Sunny 69 20.8 39 4.1 34 34 NW 7 11 30.33 1027 10 16 0.00 0.00
6:15 pm 18:15 Sunny 68 20 38 3.4 34 34 ENE 10 17 30.33 1027 10 16 0.00 0.00
6:35 pm 18:35 Sunny 68 20.1 39 4 35 35 ENE 9 15 30.33 1027 10 16 0.00 0.00
6:55 pm 18:55 Sunny 67 19.5 38 3.3 34 34 NNE 8 13 30.30 1026 10 16 0.00 0.00
7:15 pm 19:15 Sunny 67 19.5 38 3.4 35 35 ENE 9 15 30.30 1026 10 16 0.00 0.00
7:35 pm 19:35 Sunny 64 18 37 2.6 36 36 NE 7 11 30.33 1027 10 16 0.00 0.00
7:55 pm 19:55 Sunny 63 17.1 36 2.4 37 37 NNE 7 11 30.33 1027 10 16 0.00 0.00
8:15 pm 20:15 Sunny 62 16.6 37 3 40 40 NNE 3 6 30.36 1028 10 16 0.00 0.00
8:35 pm 20:35 Sunny 60 15.7 38 3.4 44 44 N 3 6 30.36 1028 10 16 0.00 0.00
8:55 pm 20:55 Clear 60 15.6 40 4.2 47 47 Calm 30.36 1028 10 16 0.00 0.00
9:15 pm 21:15 Clear 57 13.8 41 5 56 56 N 5 7 30.36 1028 10 16 0.00 0.00
9:35 pm 21:35 Clear 57 13.8 43 6.1 60 60 N 3 6 30.36 1028 10 16 0.00 0.00
9:55 pm 21:55 Clear 55 12.6 42 5.8 64 64 NNE 3 6 30.39 1029 10 16 0.00 0.00
10:15 pm 22:15 Clear 56 13.1 42 5.8 61 61 Calm 30.39 1029 10 16 0.00 0.00
10:35 pm 22:35 Clear 55 12.5 43 6 65 65 Calm 30.39 1029 10 16 0.00 0.00
10:55 pm 22:55 Clear 55 12.5 44 6.5 67 67 NNW 3 6 30.42 1030 10 16 0.00 0.00
11:15 pm 23:15 Clear 53 11.7 43 6.2 69 69 NE 6 9 30.42 1030 10 16 0.00 0.00
11:35 pm 23:35 Clear 55 12.5 42 5.5 63 63 ENE 10 17 30.42 1030 10 16 0.00 0.00
11:55 pm 23:55 Clear 55 12.5 40 4.3 58 58 ENE 10 17 30.42 1030 10 16 0.00 0.00

Powered by AerisWeather